Regional Weather Roundup
Issued by NWS Jackson, KY

Home | Current Version | Previous Version | Text Only | Print | Product List | Glossary Off
Versions: 1 2 3 4 5 6 7 8 9 10 11 12 13 14 15 16 17 18 19 20 21 22 23 24 25 26 27 28 29 30 31 32 33 34 35 36 37 38 39 40 41 42 43 44 45 46 47 48 49 50

442
ASUS43 KJKL 241210
RWRJKL

EAST KENTUCKY HOURLY WEATHER ROUNDUP
NATIONAL WEATHER SERVICE JACKSON KY
800 AM EDT WED AUG 24 2016

NOTE: "FAIR" INDICATES FEW OR NO CLOUDS BELOW 12,000 FEET WITH
NO SIGNIFICANT WEATHER AND/OR OBSTRUCTIONS TO VISIBILITY.

* THESE REPORTS ARE NOT UNDER NWS QUALITY CONTROL AND MAY NOT
  REPORT WEATHER SUCH AS PRECIPITATION AND FOG.

KYZ079-080-083-085-087-088-110-112-115-119-120-241300
...EASTERN KENTUCKY...

CITY           SKY/WX    TMP DP  RH WIND       PRES   REMARKS
JACKSON        MOSUNNY   66  63  90 CALM      30.26R
6HR MIN TEMP:  64; 6HR MAX TEMP:  70;

LONDON         MOSUNNY   66  62  87 CALM      30.26R
6HR MIN TEMP:  64; 6HR MAX TEMP:  66;

SOMERSET*      MOSUNNY   64  64 100 CALM      30.26R
MONTICELLO*    CLOUDY   N/A N/A N/A W6        30.26R
WILLIAMSBURG*  MOSUNNY   66  66 100 CALM      30.27R
MIDDLESBORO*   CLOUDY    64  63  98 CALM      30.29S
6HR MIN TEMP:  62; 6HR MAX TEMP:  64;

HARLAN APT*    CLOUDY    63  63 100 CALM      30.30R
PIKE CO APT*     N/A     67  65  93 S5        30.27S
BIG SANDY APT* PTSUNNY   67  65  93 S3        30.26S
6HR MIN TEMP:  64; 6HR MAX TEMP:  67;

MOREHEAD APT*  MOSUNNY   66  61  82 SE3       30.25R
ASHLAND*       MOSUNNY   64  63  94 CALM      30.22R
$$

KYZ035-036-041-042-044-050-067-078-099-241300
...CENTRAL KENTUCKY...

CITY           SKY/WX    TMP DP  RH WIND       PRES   REMARKS
MT STERLING*   MOSUNNY   68  63  83 SW3       30.25R
FLEMING/MASON* CLOUDY    65  63  92 S3        30.24R
DANVILLE*      PTSUNNY   66  64  94 SW3       30.25R
LEXINGTON      MOSUNNY   69  64  84 S6        30.23R
6HR MIN TEMP:  66; 6HR MAX TEMP:  69;

FRANKFORT      MOSUNNY   69  64  84 CALM      30.21R
6HR MIN TEMP:  66; 6HR MAX TEMP:  69;

LOUISVILLE     CLOUDY    71  66  84 SE6       30.18R
6HR MIN TEMP:  71; 6HR MAX TEMP:  74;

LEBANON*         N/A     70  66  88 SE7       30.22R
GLASGOW*       CLOUDY    68  68 100 CALM      30.21S
BOWLING GREEN  PTCLDY    70  68  93 CALM      30.20R
6HR MIN TEMP:  69; 6HR MAX TEMP:  72;

$$

KYZ091>093-OHZ055-061-077-WVZ005-015-034-035-042-241300
...SOUTHERN OHIO/WEST VIRGINIA...

CITY           SKY/WX    TMP DP  RH WIND       PRES   REMARKS
COVINGTON      CLOUDY    68  64  87 S6        30.20R
COLUMBUS       PTSUNNY   66  59  78 SE3       30.21S
DAYTON         CLOUDY    67  62  84 SE5       30.21R
WILMINGTON     PTSUNNY   68  63  84 S3        30.22R
HUNTINGTON     CLOUDY    63  62  97 CALM      30.23R
CHARLESTON     FOG       63  62  97 CALM      30.26R VSB 1/4
PINEVILLE*     MOSUNNY   62  59  91 MISG      30.35S FOG
BECKLEY        MOSUNNY   65  59  81 SE8       30.35S
BLUEFIELD      SUNNY     66  58  75 CALM      30.37R
LOGAN CO APT*    N/A     68  63  83 CALM      30.28R
$$

VAZ002-007-008-TNZ017-027-036-066-071-241300
...SOUTHWEST VIRGINIA/EAST TENNESSEE...

CITY           SKY/WX    TMP DP  RH WIND       PRES   REMARKS
WISE*          CLOUDY    68  55  64 S6        30.36S
JONESVILLE*    PTSUNNY   66  64  94 CALM      30.32R
ABINGDON*      PTSUNNY   67  64  87 E5        30.34S
BRISTOL        PTSUNNY   66  63  90 CALM      30.32R
MORRISTOWN*    CLOUDY    72  66  83 CALM      30.28R
SEVIERVILLE*   CLOUDY    68  66  94 CALM      30.27S
KNOXVILLE      CLOUDY    71  67  87 CALM      30.26R
OAK RIDGE      CLOUDY    70  66  87 CALM      30.28S
CROSSVILLE     PTCLDY    70  66  87 VRB3      30.30S
NASHVILLE      MOCLDY    71  68  90 CALM      30.21R
$$

...KEY TO REMARKS...
VSB - VISIBILITY IN MILES
WCI - WIND CHILL INDEX
HX  - HEAT INDEX

$$




USA.gov is the U.S. government's official web portal to all federal, state and local government web resources and services.